1508306400.29,6830,16.44,74408.3,6.21,-30.61,-32.57,0,*42
1508306401.5,6831,16.5,74412.0,6.19,-30.67,-32.69,0,*43
1508306402.7,6832,16.5,74414.5,6.21,-30.67,-32.69,0,*4B
1508306403.9,6833,16.5,74414.3,6.19,-30.67,-32.57,0,*4C
1508306405.1,6834,16.5,74408.8,6.19,-30.67,-32.57,0,*4B
1508306406.31,6835,16.5,74412.5,6.21,-30.61,-32.57,0,*47
1508306407.53,6836,16.44,74408.0,6.19,-30.61,-32.57,0,*4F
1508306408.76,6837,16.5,74408.3,6.19,-30.61,-32.51,0,*48
1508306409.99,6838,16.5,74410.5,6.19,-30.51,-32.51,0,*44
1508306411.21,6839,16.5,74412.3,6.19,-30.61,-32.51,0,*46
1508306412.46,6840,16.5,74410.8,6.17,-30.67,-32.63,0,*41
1508306413.73,6841,16.5,74412.8,6.17,-30.55,-32.63,0,*41
1508306414.97,6842,16.5,74410.0,6.15,-30.55,-32.63,0,*40
1508306416.19,6843,16.5,74414.0,6.15,-30.61,-32.69,0,*4C
1508306417.44,6844,16.5,74414.3,6.15,-30.61,-32.63,0,*41
1508306418.71,6845,16.5,74408.8,6.17,-30.73,-32.63,0,*41
1508306419.96,6846,16.5,74410.8,6.17,-30.67,-32.63,0,*47
1508306421.2,6847,16.5,74412.5,6.15,-30.61,-32.63,0,*42
1508306422.43,6848,16.5,74412.8,6.15,-30.61,-32.69,0,*47
1508306423.67,6849,16.5,74412.0,6.17,-30.51,-32.57,0,*4A
1508306424.91,6850,16.5,74414.8,6.15,-30.61,-32.63,0,*44
1508306426.14,6851,16.5,74414.8,6.15,-30.61,-32.51,0,*44
1508306427.38,6852,16.5,74412.8,6.15,-30.51,-32.45,0,*41
1508306428.6,6853,16.5,74418.0,6.15,-30.55,-32.51,0,*41
1508306429.84,6854,16.5,74412.8,6.15,-30.55,-32.45,0,*43
1508306431.09,6855,16.5,74412.0,6.15,-30.51,-32.45,0,*46
1508306432.33,6856,16.5,74414.5,6.15,-30.51,-32.45,0,*45
1508306433.56,6857,16.5,74412.3,6.15,-30.51,-32.51,0,*41
1508306434.78,6858,16.5,74410.0,6.15,-30.51,-32.35,0,*4C
1508306436.01,6859,16.5,74408.8,6.15,-30.39,-32.29,0,*4E
1508306437.25,6860,16.5,74408.8,6.15,-30.39,-32.29,0,*44
1508306438.46,6861,16.5,74406.5,6.15,-30.39,-32.35,0,*48
1508306439.68,6862,16.5,74404.3,6.15,-30.39,-32.35,0,*4B
1508306440.89,6863,16.5,74410.5,6.15,-30.33,-32.29,0,*4D
1508306442.09,6864,16.5,74410.0,6.15,-30.33,-32.35,0,*47
1508306443.31,6865,16.5,74406.3,6.15,-30.33,-32.19,0,*48
1508306444.53,6866,16.5,74406.8,6.17,-30.11,-32.13,0,*43
1508306445.73,6867,16.5,74404.8,6.15,-30.33,-32.35,0,*44
1508306446.94,6868,16.5,74408.8,6.15,-30.39,-32.35,0,*41
1508306448.15,6869,16.5,74406.5,6.15,-30.39,-32.35,0,*40
1508306449.39,6870,16.5,74406.3,6.15,-30.39,-32.29,0,*45
1508306450.6,6871,16.5,74406.5,6.15,-30.39,-32.35,0,*49
1508306451.82,6872,16.5,74404.8,6.15,-30.33,-32.29,0,*4D
1508306453.04,6873,16.5,74406.0,6.15,-30.33,-32.29,0,*4C
1508306454.26,6874,16.5,74404.3,6.15,-30.17,-32.13,0,*44
1508306455.48,6875,16.5,74404.3,6.15,-30.23,-32.19,0,*48
1508306456.71,6876,16.5,74406.5,6.17,-30.27,-32.23,0,*44
1508306457.93,6877,16.5,74406.5,6.15,-30.23,-32.19,0,*4A
1508306459.18,6878,16.5,74406.0,6.15,-30.17,-32.19,0,*42
1508306460.42,6879,16.5,74402.0,6.13,-30.05,-32.13,0,*4C
1508306461.64,6880,16.5,74406.0,6.15,-30.01,-32.01,0,*4B
1508306462.86,6881,16.5,74406.8,6.15,-30.01,-32.01,0,*4A
1508306464.08,6882,16.5,74406.8,6.15,-30.05,-32.01,0,*4D
1508306465.29,6883,16.5,74404.5,6.15,-30.05,-32.01,0,*4C
1508306466.52,6884,16.5,74406.8,6.17,-29.95,-32.13,0,*4B
1508306467.74,6885,16.5,74408.0,6.15,-30.05,-32.13,0,*49
1508306468.93,6886,16.5,74408.8,6.15,-30.23,-32.13,0,*4E
1508306470.15,6887,16.5,74408.5,6.17,-30.11,-32.13,0,*4C
1508306471.4,6888,16.5,74408.3,6.15,-30.17,-32.19,0,*4D
1508306472.62,6889,16.5,74406.8,6.15,-30.17,-32.13,0,*46
1508306473.85,6890,16.5,74404.8,6.15,-30.23,-32.19,0,*43
1508306475.07,6891,16.5,74406.8,6.17,-30.27,-32.13,0,*4E
1508306476.3,6892,16.5,74406.5,6.17,-30.27,-32.13,0,*4D
1508306477.52,6893,16.5,74408.0,6.17,-30.33,-32.23,0,*4A
1508306478.77,6894,16.5,74408.5,6.17,-30.17,-32.23,0,*4B
1508306479.98,6895,16.5,74410.0,6.15,-30.39,-32.35,0,*43
1508306481.19,6896,16.5,74410.0,6.15,-30.39,-32.35,0,*40
1508306482.41,6897,16.5,74408.0,6.15,-30.39,-32.35,0,*41
1508306483.63,6898,16.5,74408.5,6.15,-30.55,-32.51,0,*46
1508306484.88,6899,16.5,74412.5,6.17,-30.51,-32.39,0,*4F
1508306486.1,6900,16.5,74410.8,6.15,-30.51,-32.51,0,*42
1508306487.32,6901,16.5,74410.0,6.15,-30.51,-32.39,0,*4D
1508306488.55,6902,16.5,74410.8,6.15,-30.51,-32.51,0,*40
1508306489.81,6903,16.5,74408.0,6.13,-30.55,-32.45,0,*46
1508306491.06,6904,16.5,74412.0,6.09,-30.61,-32.39,0,*46
1508306492.31,6905,16.5,74412.5,6.13,-30.51,-32.35,0,*43
1508306493.54,6906,16.5,74412.3,6.13,-30.55,-32.35,0,*44
1508306494.81,6907,16.5,74410.0,6.13,-30.51,-32.29,0,*4C
1508306496.06,6908,16.5,74408.0,6.09,-30.61,-32.39,0,*4A
1508306497.32,6909,16.5,74408.3,6.13,-30.51,-32.29,0,*42
1508306498.57,6910,16.5,74410.8,6.13,-30.51,-32.35,0,*47
1508306499.83,6911,16.5,74410.8,6.13,-30.51,-32.29,0,*4B
1508306501.07,6912,16.5,74414.0,6.13,-30.61,-32.57,0,*42
1508306502.32,6913,16.5,74408.8,6.09,-30.55,-32.51,0,*49
1508306503.57,6914,16.5,74406.8,6.09,-30.55,-32.39,0,*40
1508306504.81,6915,16.5,74404.5,6.09,-30.55,-32.35,0,*4D
1508306506.05,6916,16.5,74410.5,6.13,-30.39,-32.35,0,*4F
1508306507.28,6917,16.5,74408.0,6.13,-30.39,-32.35,0,*4E
1508306508.51,6918,16.5,74408.0,6.09,-30.45,-32.35,0,*41
1508306509.73,6919,16.5,74410.8,6.07,-30.55,-32.39,0,*43
1508306510.95,6920,16.5,74410.5,6.07,-30.55,-32.35,0,*45
1508306512.2,6921,16.5,74408.8,6.09,-30.55,-32.39,0,*46
1508306513.45,6922,16.5,74408.8,6.09,-30.55,-32.39,0,*45
1508306514.69,6923,16.5,74410.3,6.09,-30.55,-32.35,0,*48
1508306515.91,6924,16.5,74412.0,6.09,-30.45,-32.35,0,*4E
1508306517.16,6925,16.5,74412.5,6.09,-30.55,-32.35,0,*4E
1508306518.4,6926,16.5,74408.5,6.09,-30.55,-32.35,0,*4D
1508306519.65,6927,16.5,74410.0,6.09,-30.55,-32.39,0,*40
1508306520.89,6928,16.5,74408.5,6.09,-30.39,-32.35,0,*49
1508306522.11,6929,16.5,74408.3,6.09,-30.45,-32.35,0,*43
1508306523.32,6930,16.5,74408.8,6.07,-30.45,-32.39,0,*49
1508306524.56,6931,16.5,74410.8,6.05,-30.61,-32.39,0,*4C
1508306525.79,6932,16.5,74408.3,6.07,-30.55,-32.39,0,*4A
1508306527.06,6933,16.5,74412.3,6.05,-30.51,-32.45,0,*46
1508306528.33,6934,16.5,74412.8,6.05,-30.61,-32.45,0,*42
1508306529.6,6935,16.5,74412.3,6.05,-30.61,-32.45,0,*43
1508306530.85,6936,16.5,74412.0,6.05,-30.61,-32.39,0,*4B
1508306532.12,6937,16.5,74408.8,6.05,-30.61,-32.45,0,*41
1508306533.37,6938,16.5,74410.5,6.05,-30.61,-32.57,0,*4D
1508306534.64,6939,16.5,74410.8,6.05,-30.61,-32.45,0,*4F
1508306535.91,6940,16.5,74410.3,6.05,-30.61,-32.45,0,*41
1508306537.16,6941,16.5,74412.5,6.05,-30.67,-32.45,0,*46
1508306538.41,6942,16.5,74412.5,6.03,-30.77,-32.63,0,*46
1508306539.66,6943,16.5,74410.0,6.03,-30.73,-32.63,0,*43
1508306540.89,6944,16.5,74410.5,6.03,-30.67,-32.63,0,*41
1508306542.16,6945,16.5,74414.3,6.01,-30.73,-32.63,0,*47
1508306543.41,6946,16.5,74410.3,6.03,-30.73,-32.63,0,*46
1508306544.69,6947,16.5,74414.0,6.01,-30.73,-32.63,0,*45
1508306545.94,6948,16.5,74410.5,6.01,-30.67,-32.45,0,*4B
1508306547.17,6949,16.5,74410.0,6.03,-30.67,-32.45,0,*48
1508306548.4,6950,16.5,74410.3,6.01,-30.67,-32.51,0,*47
1508306549.65,6951,16.5,74414.5,6.01,-30.55,-32.51,0,*47
1508306550.92,6952,16.5,74412.0,6.01,-30.55,-32.45,0,*41
1508306552.19,6953,16.5,74410.3,6.01,-30.51,-32.45,0,*44
1508306553.46,6954,16.5,74408.8,6.01,-30.55,-32.45,0,*47
1508306554.7,6955,16.5,74408.0,6.01,-30.55,-32.35,0,*41
1508306555.94,6956,16.5,74406.8,6.01,-30.51,-32.35,0,*46
1508306557.21,6957,16.5,74410.3,6.01,-30.51,-32.45,0,*40
1508306558.46,6958,16.5,74408.5,6.01,-30.51,-32.35,0,*48
1508306559.68,6959,16.5,74404.3,5.99,-30.55,-32.35,0,*4F
1508306560.9,6960,16.5,74406.0,5.99,-30.55,-32.39,0,*49
1508306562.15,6961,16.5,74410.0,5.97,-30.61,-32.39,0,*41
1508306563.37,6962,16.5,74410.0,5.99,-30.61,-32.39,0,*4C
1508306564.6,6963,16.5,74408.5,5.99,-30.61,-32.51,0,*43
1508306565.83,6964,16.5,74406.8,5.99,-30.61,-32.51,0,*44
1508306567.05,6965,16.5,74404.3,5.99,-30.55,-32.51,0,*42
1508306568.28,6966,16.5,74408.8,5.97,-30.67,-32.57,0,*48
1508306569.53,6967,16.5,74410.0,5.97,-30.67,-32.45,0,*4A
1508306570.78,6968,16.5,74410.5,5.97,-30.61,-32.39,0,*48
1508306572.0,6969,16.5,74408.0,5.99,-30.61,-32.39,0,*47
1508306573.22,6970,16.5,74408.0,5.97,-30.67,-32.57,0,*4F
1508306574.45,6971,16.5,74404.0,5.99,-30.61,-32.39,0,*4E
1508306575.69,6972,16.5,74406.0,6.01,-30.51,-32.35,0,*40
1508306576.97,6973,16.5,74408.0,5.97,-30.61,-32.45,0,*49
1508306578.19,6974,16.5,74410.0,5.97,-30.67,-32.39,0,*43
1508306579.42,6975,16.5,74408.3,5.97,-30.67,-32.39,0,*42
1508306580.69,6976,16.5,74408.8,5.97,-30.61,-32.45,0,*4C
1508306581.94,6977,16.5,74408.3,5.97,-30.45,-32.29,0,*41
1508306583.17,6978,16.5,74406.0,5.97,-30.45,-32.29,0,*4E
1508306584.4,6979,16.5,74410.3,5.97,-30.33,-32.23,0,*44
1508306585.64,6980,16.5,74410.5,5.97,-30.45,-32.29,0,*49
1508306586.88,6981,16.5,74408.0,5.97,-30.51,-32.39,0,*4C
1508306588.13,6982,16.5,74408.5,5.97,-30.51,-32.39,0,*4F
1508306589.4,6983,16.5,74410.5,5.97,-30.51,-32.29,0,*4F
1508306590.62,6984,16.5,74410.5,5.99,-30.39,-32.23,0,*42
1508306591.84,6985,16.5,74406.8,5.97,-30.45,-32.39,0,*4D
1508306593.09,6986,16.5,74408.5,5.97,-30.51,-32.39,0,*4B
1508306594.33,6987,16.5,74410.5,5.97,-30.45,-32.29,0,*4E
1508306595.57,6988,16.5,74406.5,5.97,-30.45,-32.45,0,*4B
1508306596.84,6989,16.5,74406.8,5.97,-30.51,-32.29,0,*45
1508306598.09,6990,16.5,74408.0,5.97,-30.61,-32.39,0,*4F
1508306599.34,6991,16.5,74410.3,5.95,-30.61,-32.45,0,*47
1508306600.56,6992,16.5,74410.3,5.95,-30.45,-32.45,0,*42
1508306601.76,6993,16.5,74410.8,5.95,-30.33,-32.23,0,*42
1508306603.0,6994,16.5,74408.8,5.93,-30.39,-32.35,0,*4E
1508306604.22,6995,16.5,74410.0,5.95,-30.45,-32.29,0,*4F
1508306605.49,6996,16.5,74410.0,5.97,-30.51,-32.29,0,*4B
1508306606.7,6997,16.5,74410.8,5.95,-30.67,-32.51,0,*42
1508306607.97,6998,16.5,74412.0,5.93,-30.55,-32.45,0,*4F
1508306609.19,6999,16.5,74410.8,5.95,-30.51,-32.39,0,*47
1508306610.42,7000,16.5,74408.5,5.95,-30.51,-32.23,0,*44
1508306611.64,7001,16.5,74410.5,5.95,-30.51,-32.39,0,*4E
1508306612.91,7002,16.5,74410.5,5.93,-30.55,-32.45,0,*44
1508306614.17,7003,16.5,74410.8,5.93,-30.67,-32.45,0,*44
1508306615.41,7004,16.5,74410.0,5.93,-30.55,-32.35,0,*45
1508306616.69,7005,16.5,74410.8,5.93,-30.61,-32.45,0,*44
1508306617.94,7006,16.5,74410.0,5.93,-30.67,-32.45,0,*41
1508306619.19,7007,16.5,74410.5,5.93,-30.39,-32.35,0,*4C
1508306620.44,7008,16.5,74410.5,5.93,-30.17,-32.13,0,*4B
1508306621.69,7009,16.5,74412.0,5.93,-30.17,-32.13,0,*4A
1508306622.92,7010,16.5,74410.5,5.95,-30.11,-32.07,0,*47
1508306624.17,7011,16.5,74410.3,5.93,-30.23,-32.07,0,*41
1508306625.44,7012,16.5,74410.8,5.93,-30.39,-32.29,0,*45
1508306626.65,7013,16.5,74408.0,5.95,-30.27,-32.23,0,*47
1508306627.92,7014,16.5,74408.5,5.93,-30.05,-31.95,0,*48
1508306629.2,7015,16.5,74410.5,5.93,-30.05,-32.07,0,*41
1508306630.47,7016,16.5,74410.5,5.93,-30.39,-32.29,0,*41
1508306631.73,7017,16.5,74412.8,5.93,-30.39,-32.29,0,*40
1508306632.94,7018,16.5,74408.3,5.95,-30.27,-32.23,0,*4C
1508306634.19,7019,16.5,74410.5,5.93,-30.23,-32.19,0,*46
1508306635.44,7020,16.5,74410.0,5.93,-30.33,-32.29,0,*4E
1508306636.66,7021,16.5,74408.3,5.91,-30.33,-32.19,0,*4E
1508306637.86,7022,16.5,74412.8,5.91,-30.23,-32.13,0,*46
1508306639.13,7023,16.5,74408.5,5.93,-30.39,-32.19,0,*44
1508306640.38,7024,16.5,74410.0,5.91,-30.39,-32.19,0,*41
1508306641.6,7025,16.5,74408.0,5.91,-30.51,-32.35,0,*40
1508306642.85,7026,16.5,74414.5,5.91,-30.51,-32.29,0,*4E
1508306644.07,7027,16.5,74410.3,5.91,-30.33,-32.29,0,*4B
1508306645.26,7028,16.5,74410.8,5.91,-30.23,-32.13,0,*4C
1508306646.49,7029,16.5,74406.8,5.91,-30.17,-32.13,0,*4A
1508306647.74,7030,16.5,74408.5,5.91,-30.05,-31.95,0,*4C
1508306648.96,7031,16.5,74410.0,5.91,-30.17,-32.13,0,*43
1508306650.19,7032,16.5,74408.5,5.91,-30.33,-32.19,0,*4C
1508306651.41,7033,16.5,74410.8,5.89,-30.23,-32.13,0,*4F
1508306652.63,7034,16.5,74410.5,5.91,-30.17,-32.13,0,*46
1508306653.89,7035,16.5,74410.3,5.91,-30.17,-31.95,0,*4A
1508306655.14,7036,16.5,74408.0,5.91,-30.05,-32.07,0,*42
1508306656.39,7037,16.5,74408.5,5.89,-30.23,-32.19,0,*41
1508306657.63,7038,16.5,74408.5,5.89,-30.23,-32.19,0,*4E
1508306658.85,7039,16.5,74408.8,5.91,-30.05,-32.13,0,*48
1508306660.07,7040,16.5,74412.5,5.89,-30.11,-32.13,0,*4A
1508306661.32,7041,16.5,74414.5,5.91,-30.05,-32.07,0,*42
1508306662.55,7042,16.5,74410.8,5.91,-30.23,-32.19,0,*4A
1508306663.8,7043,16.5,74412.3,5.89,-30.27,-32.19,0,*46
1508306665.03,7044,16.5,74410.3,5.91,-30.27,-32.19,0,*48
1508306666.28,7045,16.5,74410.8,5.89,-30.45,-32.19,0,*44
1508306667.5,7046,16.5,74408.5,5.91,-30.17,-32.13,0,*43
1508306668.74,7047,16.5,74410.3,5.89,-30.39,-32.23,0,*44
1508306669.97,7048,16.5,74414.0,5.91,-30.17,-32.13,0,*4D
1508306671.21,7049,16.5,74408.5,5.89,-30.23,-32.19,0,*48
1508306672.43,7050,16.5,74414.0,5.89,-30.11,-32.13,0,*4B
1508306673.67,7051,16.5,74410.3,5.89,-30.05,-32.01,0,*4C
1508306674.93,7052,16.5,74408.3,5.91,-30.01,-31.95,0,*4C
1508306676.18,7053,16.5,74410.8,5.91,-30.01,-31.95,0,*4D
1508306677.38,7054,16.5,74404.8,5.91,-29.83,-31.79,0,*4A
1508306678.63,7055,16.5,74412.0,5.91,-30.01,-31.91,0,*4F
1508306679.86,7056,16.5,74414.3,5.91,-29.89,-31.79,0,*42
1508306681.11,7057,16.5,74410.3,5.89,-29.95,-31.85,0,*44
1508306682.39,7058,16.5,74406.8,5.89,-29.89,-31.85,0,*46
1508306683.59,7059,16.5,74410.0,5.91,-29.83,-31.79,0,*47
1508306684.82,7060,16.5,74404.3,5.91,-29.83,-31.73,0,*47
1508306686.07,7061,16.5,74410.8,5.89,-30.11,-31.95,0,*44
1508306687.32,7062,16.5,74408.0,5.93,-30.23,-32.07,0,*45
1508306688.58,7063,16.5,74408.5,5.93,-29.83,-31.73,0,*46
1508306689.8,7064,16.5,74408.3,5.91,-29.79,-31.57,0,*40
1508306691.03,7065,16.5,74408.3,5.91,-29.61,-31.39,0,*40
1508306692.25,7066,16.5,74410.5,5.91,-29.79,-31.57,0,*42
1508306693.5,7067,16.5,74404.8,5.93,-29.67,-31.57,0,*4E
1508306694.75,7068,16.5,74404.5,5.93,-29.79,-31.73,0,*48
1508306696.01,7069,16.5,74404.0,5.93,-29.79,-31.61,0,*4A
1508306697.26,7070,16.5,74404.8,5.93,-29.79,-31.73,0,*41
1508306698.54,7071,16.5,74406.0,5.93,-29.89,-31.91,0,*43
1508306699.79,7072,16.5,74404.5,5.95,-30.01,-31.85,0,*4B
1508306701.06,7073,16.56,74412.3,5.93,-30.05,-31.91,0,*4D
1508306702.34,7074,16.5,74410.3,5.93,-30.01,-31.95,0,*4A
1508306703.57,7075,16.5,74406.5,5.95,-29.95,-31.73,0,*40
1508306704.84,7076,16.5,74410.0,5.93,-30.05,-31.91,0,*48
1508306706.09,7077,16.5,74408.8,5.95,-30.01,-31.91,0,*4B
1508306707.37,7078,16.5,74410.5,5.93,-30.05,-31.91,0,*46
1508306708.64,7079,16.5,74410.0,5.93,-30.01,-31.91,0,*43
1508306709.89,7080,16.5,74408.8,5.93,-29.95,-31.73,0,*4C
1508306711.15,7081,16.5,74406.5,5.93,-29.89,-31.79,0,*4A
1508306712.43,7082,16.5,74404.3,5.93,-30.01,-31.91,0,*47
1508306713.68,7083,16.5,74404.0,5.93,-29.79,-31.61,0,*4E
1508306714.9,7084,16.5,74406.8,5.95,-29.73,-31.67,0,*43
1508306716.15,7085,16.5,74402.8,5.95,-29.73,-31.57,0,*41
1508306717.37,7086,16.5,74406.8,5.95,-29.73,-31.67,0,*41
1508306718.63,7087,16.56,74410.5,5.93,-29.79,-31.61,0,*4A
1508306719.88,7088,16.5,74406.3,5.93,-29.79,-31.61,0,*45
1508306721.11,7089,16.5,74406.8,5.95,-29.79,-31.57,0,*47
1508306722.35,7090,16.5,74406.8,5.97,-29.79,-31.57,0,*4D
1508306723.6,7091,16.5,74406.3,5.97,-29.79,-31.57,0,*4C
1508306724.85,7092,16.5,74408.8,5.97,-29.79,-31.51,0,*49
1508306726.12,7093,16.5,74406.5,5.97,-29.73,-31.51,0,*42
1508306727.4,7094,16.5,74404.8,5.97,-29.73,-31.51,0,*45
1508306728.67,7095,16.5,74406.0,5.97,-29.73,-31.51,0,*44
1508306729.94,7096,16.5,74408.5,5.97,-29.73,-31.57,0,*41
1508306731.18,7097,16.5,74408.8,5.99,-29.35,-31.29,0,*45
1508306732.43,7098,16.5,74408.0,5.97,-29.39,-31.33,0,*43
1508306733.64,7099,16.5,74408.0,5.99,-29.67,-31.45,0,*46
1508306734.87,7100,16.5,74406.0,5.99,-29.61,-31.39,0,*4A
1508306736.11,7101,16.5,74406.5,5.99,-29.51,-31.45,0,*43
1508306737.35,7102,16.5,74408.3,5.99,-29.51,-31.45,0,*40
1508306738.57,7103,16.5,74408.0,5.99,-29.67,-31.45,0,*44
1508306739.85,7104,16.5,74406.8,6.01,-29.51,-31.39,0,*4F
1508306741.1,7105,16.5,74408.8,6.01,-29.61,-31.39,0,*4D
1508306742.34,7106,16.5,74408.0,6.01,-29.61,-31.45,0,*45
1508306743.6,7107,16.5,74410.5,6.01,-29.51,-31.45,0,*47
1508306744.81,7108,16.5,74408.8,6.03,-29.61,-31.45,0,*49
1508306746.04,7109,16.5,74408.0,6.01,-29.61,-31.45,0,*4A
1508306747.29,7110,16.5,74408.3,6.03,-29.51,-31.45,0,*43
1508306748.57,7111,16.5,74408.0,6.01,-29.51,-31.39,0,*4B
1508306749.83,7112,16.5,74406.3,6.01,-29.45,-31.39,0,*4D
1508306751.03,7113,16.56,74410.3,6.03,-29.45,-31.29,0,*4F
1508306752.25,7114,16.5,74404.3,6.03,-29.45,-31.29,0,*48
1508306753.51,7115,16.5,74412.5,6.01,-29.51,-31.29,0,*4E
1508306754.71,7116,16.5,74412.0,6.03,-29.45,-31.29,0,*4A
1508306755.95,7117,16.56,74412.3,6.03,-29.35,-31.29,0,*4C
1508306757.19,7118,16.56,74408.0,6.03,-29.35,-31.29,0,*43
1508306758.44,7119,16.5,74410.5,6.03,-29.29,-31.11,0,*44
1508306759.7,7120,16.5,74410.8,6.03,-29.29,-31.23,0,*4F
1508306760.96,7121,16.5,74408.5,6.03,-29.35,-31.11,0,*42
1508306762.21,7122,16.5,74408.8,6.05,-29.29,-31.17,0,*4C
1508306763.45,7123,16.5,74408.8,6.07,-29.35,-31.17,0,*42
1508306764.7,7124,16.56,74414.0,6.05,-29.29,-31.17,0,*4A
1508306765.96,7125,16.5,74414.8,6.07,-29.17,-30.95,0,*4F
1508306767.2,7126,16.5,74408.0,6.07,-29.17,-30.83,0,*4B
1508306768.45,7127,16.5,74406.3,6.07,-29.01,-30.95,0,*4A
1508306769.68,7128,16.5,74408.5,6.07,-29.07,-30.95,0,*43
1508306770.95,7129,16.5,74408.5,6.09,-28.85,-30.77,0,*4B
1508306772.24,7130,16.5,74406.5,6.09,-29.01,-30.77,0,*4E
1508306773.5,7131,16.5,74408.0,6.09,-28.91,-30.67,0,*46
1508306774.79,7132,16.5,74408.3,6.09,-28.91,-30.61,0,*43
1508306776.05,7133,16.5,74410.3,6.13,-28.97,-30.77,0,*48
1508306777.33,7134,16.5,74410.5,6.13,-29.01,-30.89,0,*40
1508306778.61,7135,16.5,74410.0,6.13,-29.01,-30.89,0,*41
1508306779.88,7136,16.5,74408.8,6.09,-29.01,-30.83,0,*43
1508306781.13,7137,16.5,74408.3,6.13,-28.85,-30.61,0,*48
1508306782.42,7138,16.5,74408.0,6.13,-28.79,-30.77,0,*43
1508306783.69,7139,16.5,74408.0,6.17,-28.63,-30.51,0,*49
1508306784.93,7140,16.5,74404.0,6.15,-28.85,-30.61,0,*4E
1508306786.21,7141,16.56,74408.3,6.17,-28.75,-30.73,0,*41
1508306787.46,7142,16.5,74406.0,6.17,-28.75,-30.67,0,*47
1508306788.74,7143,16.5,74408.0,6.17,-28.63,-30.55,0,*40
1508306789.99,7144,16.5,74408.5,6.17,-28.69,-30.55,0,*4D
1508306791.22,7145,16.5,74408.0,6.19,-28.59,-30.45,0,*40
1508306792.44,7146,16.5,74408.3,6.19,-28.69,-30.51,0,*45
1508306793.67,7147,16.5,74408.5,6.19,-28.69,-30.51,0,*44
1508306794.9,7148,16.5,74406.0,6.19,-28.59,-30.45,0,*4D
1508306796.12,7149,16.5,74406.8,6.21,-28.59,-30.45,0,*47
1508306797.35,7150,16.5,74404.3,6.21,-28.75,-30.45,0,*41
1508306798.6,7151,16.5,74404.0,6.23,-28.53,-30.39,0,*4D
1508306799.85,7152,16.5,74408.5,6.23,-28.47,-30.33,0,*41
1508306801.1,7153,16.5,74408.0,6.25,-28.47,-30.55,0,*46
1508306802.35,7154,16.5,74406.3,6.23,-28.53,-30.39,0,*48
1508306803.55,7155,16.56,74406.0,6.25,-28.69,-30.45,0,*4D
1508306804.78,7156,16.56,74406.5,6.25,-28.53,-30.55,0,*46
1508306806.01,7157,16.5,74406.8,6.25,-28.63,-30.45,0,*45
1508306807.24,7158,16.5,74404.3,6.25,-28.53,-30.55,0,*48
1508306808.48,7159,16.5,74404.5,6.29,-28.47,-30.39,0,*4A
1508306809.76,7160,16.56,74408.3,6.27,-28.59,-30.39,0,*41
1508306811.03,7161,16.5,74406.3,6.27,-28.43,-30.39,0,*4B
1508306812.27,7162,16.5,74402.0,6.29,-28.47,-30.51,0,*4C
1508306813.51,7163,16.5,74406.5,6.29,-28.47,-30.39,0,*43
1508306814.76,7164,16.56,74408.3,6.29,-28.79,-30.55,0,*43
1508306816.0,7165,16.56,74404.8,6.29,-28.47,-30.39,0,*45
1508306817.24,7166,16.5,74404.8,6.31,-28.43,-30.23,0,*40
1508306818.49,7167,16.56,74406.5,6.35,-28.47,-30.45,0,*41
1508306819.72,7168,16.56,74404.5,6.35,-28.53,-30.45,0,*4B
1508306820.96,7169,16.56,74406.3,6.35,-28.47,-30.23,0,*4F
1508306822.19,7170,16.56,74404.3,6.35,-28.37,-30.23,0,*40
1508306823.45,7171,16.5,74402.3,6.35,-28.47,-30.39,0,*4D
1508306824.7,7172,16.56,74406.3,6.35,-28.47,-30.27,0,*41
1508306825.94,7173,16.5,74402.8,6.39,-28.43,-30.23,0,*4C
1508306827.22,7174,16.56,74404.0,6.39,-28.43,-30.17,0,*4C
1508306828.46,7175,16.5,74402.8,6.39,-28.47,-30.23,0,*4E
1508306829.69,7176,16.5,74400.8,6.39,-28.53,-30.33,0,*49
1508306830.94,7177,16.56,74406.5,6.39,-28.47,-30.33,0,*4D
1508306832.16,7178,16.56,74410.0,6.37,-28.53,-30.55,0,*49
1508306833.4,7179,16.56,74410.8,6.43,-28.43,-30.27,0,*4F
1508306834.63,7180,16.56,74410.8,6.41,-28.59,-30.33,0,*45
1508306835.83,7181,16.5,74406.8,6.41,-28.53,-30.33,0,*4E
1508306837.06,7182,16.56,74408.3,6.43,-28.53,-30.33,0,*4F
1508306838.29,7183,16.56,74408.8,6.41,-28.53,-30.17,0,*4A
1508306839.51,7184,16.5,74410.3,6.41,-28.59,-30.45,0,*40
1508306840.71,7185,16.56,74410.0,6.41,-28.69,-30.33,0,*43
1508306841.91,7186,16.56,74412.5,6.45,-28.53,-30.27,0,*48
1508306843.1,7187,16.56,74414.5,6.45,-28.31,-30.11,0,*48
1508306844.34,7188,16.56,74414.5,6.45,-28.63,-30.39,0,*4A
1508306845.58,7189,16.56,74412.0,6.45,-28.63,-30.39,0,*4B
1508306846.79,7190,16.56,74414.5,6.45,-28.47,-30.27,0,*4A
1508306848.03,7191,16.56,74414.3,6.45,-28.47,-30.39,0,*44
1508306849.23,7192,16.5,74410.8,6.45,-28.37,-30.27,0,*4F
1508306850.49,7193,16.56,74412.5,6.47,-28.63,-30.39,0,*42
1508306851.72,7194,16.56,74408.8,6.47,-28.53,-30.27,0,*49
1508306852.96,7195,16.56,74410.8,6.47,-28.47,-30.27,0,*4D
1508306854.18,7196,16.56,74412.5,6.47,-28.37,-30.23,0,*4D
1508306855.4,7197,16.56,74410.5,6.49,-28.59,-30.33,0,*4B
1508306856.63,7198,16.5,74410.5,6.49,-28.47,-30.33,0,*4B
1508306857.88,7199,16.56,74412.5,6.51,-28.37,-30.17,0,*42
1508306859.13,7200,16.56,74414.3,6.49,-28.63,-30.51,0,*4B
1508306860.4,7201,16.56,74412.0,6.51,-28.59,-30.51,0,*4A
1508306861.65,7202,16.56,74414.0,6.51,-28.53,-30.51,0,*43
1508306862.91,7203,16.56,74410.5,6.51,-28.59,-30.33,0,*4C
1508306864.14,7204,16.56,74412.0,6.51,-28.53,-30.33,0,*41
1508306865.37,7205,16.5,74408.0,6.51,-28.53,-30.45,0,*41
1508306866.59,7206,16.56,74412.0,6.53,-28.69,-30.45,0,*49
1508306867.86,7207,16.56,74412.8,6.53,-28.59,-30.51,0,*4E
1508306869.13,7208,16.56,74412.3,6.53,-28.75,-30.51,0,*4F
1508306870.37,7209,16.56,74414.0,6.53,-28.69,-30.51,0,*43
1508306871.59,7210,16.56,74412.0,6.53,-28.69,-30.33,0,*4F
1508306872.84,7211,16.56,74412.5,6.57,-28.47,-30.27,0,*43
1508306874.08,7212,16.5,74404.8,6.53,-28.69,-30.51,0,*49
1508306875.33,7213,16.56,74406.8,6.57,-28.69,-30.55,0,*48
1508306876.58,7214,16.56,74406.3,6.59,-28.59,-30.39,0,*48
1508306877.85,7215,16.56,74404.0,6.57,-28.63,-30.39,0,*4E
1508306879.13,7216,16.56,74404.5,6.57,-28.63,-30.55,0,*47
1508306880.35,7217,16.56,74404.3,6.59,-28.47,-30.33,0,*4E
1508306881.57,7218,16.56,74404.3,6.59,-28.47,-30.33,0,*41
1508306882.82,7219,16.56,74406.8,6.59,-28.47,-30.39,0,*4A
1508306884.06,7220,16.56,74408.3,6.61,-28.43,-30.23,0,*44
1508306885.31,7221,16.56,74408.3,6.61,-28.59,-30.33,0,*4F
1508306886.56,7222,16.56,74410.8,6.61,-28.47,-30.23,0,*42
1508306887.8,7223,16.56,74406.8,6.61,-28.43,-30.23,0,*47
1508306889.05,7224,16.5,74406.3,6.59,-28.63,-30.51,0,*4C
1508306890.29,7225,16.56,74408.0,6.61,-28.47,-30.23,0,*45
1508306891.51,7226,16.56,74408.8,6.63,-28.43,-30.27,0,*44
1508306892.74,7227,16.56,74410.3,6.65,-28.53,-30.33,0,*47
1508306893.94,7228,16.56,74408.3,6.63,-28.53,-30.27,0,*4B
1508306895.19,7229,16.56,74414.5,6.65,-28.37,-30.17,0,*4D
1508306896.44,7230,16.56,74408.5,6.65,-28.43,-30.45,0,*41
1508306897.64,7231,16.56,74406.5,6.63,-28.53,-30.45,0,*47
1508306898.89,7232,16.56,74404.5,6.65,-28.59,-30.45,0,*48
1508306900.11,7233,16.56,74406.5,6.65,-28.53,-30.45,0,*43
1508306901.35,7234,16.56,74408.5,6.65,-28.43,-30.45,0,*45
1508306902.55,7235,16.56,74404.8,6.67,-28.31,-30.11,0,*42
1508306903.75,7236,16.56,74408.0,6.67,-28.37,-30.23,0,*46
1508306904.95,7237,16.56,74406.0,6.67,-28.37,-30.23,0,*47
1508306906.2,7238,16.56,74410.3,6.69,-28.43,-30.33,0,*44
1508306907.42,7239,16.56,74408.3,6.69,-28.31,-30.23,0,*41
1508306908.69,7240,16.56,74406.3,6.69,-28.25,-30.05,0,*4E
1508306909.93,7241,16.5,74406.5,6.69,-28.15,-30.05,0,*4C
1508306911.2,7242,16.56,74410.3,6.69,-28.09,-30.01,0,*46
1508306912.48,7243,16.56,74404.3,6.69,-28.25,-30.17,0,*4E
1508306913.73,7244,16.56,74408.0,6.71,-28.25,-30.17,0,*40
1508306914.95,7245,16.56,74408.3,6.71,-28.15,-30.17,0,*42
1508306916.18,7246,16.56,74406.3,6.71,-28.31,-30.17,0,*47
1508306917.43,7247,16.56,74406.0,6.73,-28.21,-30.11,0,*43
1508306918.64,7248,16.56,74408.0,6.71,-28.43,-30.23,0,*4B
1508306919.9,7249,16.5,74404.0,6.73,-28.37,-30.17,0,*4C